GSAT-8

Last updated on Mon Oct 14 2024 00:02:38 GMT+0000 (Coordinated Universal Time)

1 37605U 11022A 24287.20297656 .00000084 00000+0 00000+0 0 9997 2 37605 0.5391 89.5309 0007560 156.2044 264.7109 1.00271501 47080
UTC large
Height (km)
Speed (km/s)
/
Latitude / Longitude
Inclination (degrees)
Orbital Period (minutes)
Azimuth
Elevation
Range (km)
Doppler Factor

Next 0 passes for location: London (51.5072 / 0.1276)

Sorry there are no passes over London.